Temperature
24 24 23 24 27 29 30 34 34 34 34 34 33 34 32 30 29 27 27 25 23 23 24 23 22 21 21 21 20 20 20 20 20 20 20 20 20 20 20 20 20 19 19 19 19 19 19 20 20
25 24 26 27 29 28 31 33 34 34 34 34 34 34 32 29 28 27 26 24 23 24 24 23 22 21 21 20 20 20 20 20 20 20 20 20 20 20 20 20 20 20 20 20 20 20 20 20 20
25 25 28 30 29 26 30 34 34 35 34 34 34 32 31 29 28 26 25 24 23 23 24 24 23 22 21 21 20 20 20 20 20 20 20 20 20 20 20 20 20 20 20 20 20 20 20 20 20
25 28 30 32 30 28 30 34 35 34 34 34 33 31 29 28 28 26 25 24 23 22 24 24 23 22 21 21 21 20 20 20 20 20 20 20 20 20 20 20 20 20 20 19 19 19 19 19 20
27 30 32 33 32 31 32 35 35 34 34 35 33 30 28 27 26 25 25 25 23 22 23 24 23 22 22 21 21 21 20 20 20 20 20 20 20 20 20 20 20 20 20 19 19 19 19 19 19
29 33 33 33 33 33 34 35 35 35 35 34 32 30 27 27 26 26 26 25 24 23 22 23 23 22 22 21 21 21 21 20 20 20 20 20 20 20 20 20 20 20 19 19 19 19 19 19 19
30 32 33 34 34 33 35 35 33 32 31 31 32 30 28 27 26 26 26 26 25 23 22 24 23 23 23 22 22 21 21 21 20 20 20 20 20 20 20 20 20 20 19 19 19 19 19 19 18
31 33 33 34 35 35 36 35 34 31 29 30 31 30 28 27 26 26 26 26 25 24 22 23 23 23 22 22 22 21 21 20 20 20 20 20 20 20 20 20 20 19 19 19 19 19 19 19 19
31 32 32 34 35 35 35 34 32 33 30 31 32 31 28 26 26 26 26 26 25 24 22 22 21 22 22 22 21 21 21 20 20 20 20 20 20 20 19 19 19 19 19 19 19 19 19 19 19
32 32 33 36 36 35 35 35 34 34 34 32 30 29 27 26 26 26 26 25 24 24 23 22 22 21 21 20 20 20 20 20 20 20 20 20 19 19 18 18 19 19 19 19 19 19 19 19 19
33 33 34 35 35 35 35 35 35 36 35 33 30 28 27 27 26 26 26 25 24 23 23 23 23 21 21 21 20 20 19 19 19 19 19 19 19 19 19 18 18 18 19 19 19 18 18 18 18
33 34 34 34 34 34 34 34 35 36 35 32 29 27 26 27 27 27 26 26 25 24 23 23 22 22 21 21 21 20 20 19 19 19 19 19 18 19 19 18 18 18 18 18 18 18 18 18 18
33 33 33 33 34 34 34 34 35 35 35 33 29 27 26 27 28 28 28 27 25 24 23 23 22 21 21 21 21 20 20 20 19 19 19 19 19 19 19 18 18 18 18 18 18 18 18 18 18
32 33 33 33 33 33 34 35 35 35 35 33 31 29 28 28 28 28 28 27 25 24 23 23 22 21 21 21 20 20 20 20 19 19 19 19 19 18 18 18 18 19 18 18 18 19 19 18 18
32 32 32 33 33 34 34 34 35 35 35 34 32 31 30 29 29 28 27 26 25 24 23 22 21 21 21 20 20 20 20 20 20 19 19 19 18 18 18 18 18 18 18 18 18 18 18 18 18
32 31 30 32 34 34 34 32 34 35 35 34 33 32 31 30 29 28 27 26 25 24 23 22 21 21 20 20 20 20 20 19 19 19 19 18 18 18 17 17 17 17 17 17 17 17 18 18 18
31 30 31 33 35 35 33 32 34 34 34 34 33 33 31 30 29 28 27 26 25 23 23 22 21 21 20 20 20 20 20 20 19 19 19 18 17 17 17 17 17 17 17 17 17 17 17 17 17
30 32 32 33 34 34 32 33 34 32 32 32 32 32 30 29 28 27 26 24 24 23 22 21 21 20 20 20 20 20 20 20 20 19 19 18 18 17 17 17 17 16 16 16 16 16 16 16 16
31 31 31 32 33 32 31 32 33 32 31 31 32 31 30 28 27 25 24 23 23 23 22 21 21 20 20 20 20 20 20 20 20 20 19 18 18 17 17 16 16 16 16 16 16 16 16 16 16
31 30 31 32 32 32 31 31 32 32 31 30 30 29 27 26 24 23 22 23 23 22 21 21 21 20 21 21 21 21 21 20 20 20 19 19 17 17 17 16 16 15 15 15 15 15 15 15 15
30 29 29 30 31 31 31 30 31 32 32 29 27 24 22 20 19 20 22 23 22 22 21 21 21 21 21 21 21 21 20 20 20 19 19 19 18 17 17 16 16 15 15 15 15 15 15 14 14
29 30 30 30 29 29 30 29 30 31 28 25 21 18 17 17 16 17 19 21 21 21 21 21 20 21 21 21 21 20 20 20 20 20 20 19 18 18 17 17 16 16 16 16 15 14 15 14 14
30 31 30 30 29 28 28 28 29 29 25 22 19 17 15 16 16 17 18 19 19 20 20 20 19 19 20 20 20 20 20 20 20 20 19 19 19 18 17 17 16 16 16 15 15 15 15 15 14
31 30 30 30 28 24 21 23 26 26 25 23 20 18 16 16 16 16 16 17 18 18 18 18 17 17 18 18 18 18 18 19 19 19 19 19 18 18 18 17 16 16 16 15 15 15 14 14 14
30 29 27 27 23 21 20 22 24 24 24 23 21 19 18 17 17 16 16 16 16 16 16 15 15 16 16 16 16 17 17 17 17 17 18 18 18 18 18 17 17 17 16 16 16 14 14 14 14
29 29 27 26 26 26 23 23 23 23 23 22 21 20 19 18 17 16 16 15 15 15 14 14 14 14 15 15 15 15 15 15 15 16 16 17 17 17 17 17 17 17 16 16 15 14 14 13 14
29 28 29 28 27 27 27 23 22 22 23 22 21 20 19 18 17 17 16 16 15 15 14 14 14 14 14 14 15 14 15 15 15 15 15 15 15 16 16 16 15 15 16 15 15 15 14 14 14
30 29 28 27 26 26 27 24 21 20 22 22 21 20 18 18 18 17 16 16 15 15 14 14 14 14 14 14 14 14 14 14 15 15 15 15 15 15 15 14 14 14 15 15 14 14 14 14 14
29 29 28 28 27 25 25 22 22 21 21 21 20 18 17 17 17 16 16 15 15 15 14 14 13 13 13 13 13 14 13 14 14 14 14 15 15 14 14 14 14 14 14 14 14 14 14 14 14
29 29 28 26 25 26 25 21 19 19 18 17 17 17 16 16 15 15 15 14 14 13 13 13 12 12 12 12 12 12 12 12 12 12 13 13 13 14 14 13 13 13 13 14 14 14 14 14 14
Wind_Speed
10 12 11 7 6 6 4 9 13 13 12 11 9 8 18 16 12 11 14 23 25 22 20 20 17 16 16 16 17 17 16 15 14 13 11 10 9 8 7 7 8 7 7 7 7 7 7 7 7
11 14 9 5 5 5 2 9 11 10 7 6 6 10 18 13 13 13 16 23 24 21 20 19 18 16 16 16 16 16 16 15 14 12 12 11 10 8 7 6 7 6 6 6 6 6 6 6 6
13 13 6 5 1 4 4 8 7 7 6 5 10 14 12 10 12 12 17 23 22 20 19 21 20 17 16 16 15 15 14 14 13 12 12 11 10 9 8 7 6 6 5 5 5 4 5 5 6
8 7 7 7 3 5 11 2 6 6 4 5 13 12 9 8 9 17 19 21 21 19 19 21 20 18 17 16 16 15 14 13 12 11 11 10 10 9 8 8 7 6 6 5 5 5 5 6 6
9 7 11 11 5 8 10 3 3 8 5 9 18 14 11 11 17 19 18 21 19 19 19 20 19 17 16 15 15 15 14 14 13 12 11 10 10 9 9 8 8 8 7 7 7 7 7 8 8
6 8 12 10 2 2 7 5 3 2 7 11 19 16 10 13 15 17 17 18 18 19 19 19 19 17 16 15 15 14 14 14 13 13 12 11 11 10 10 10 9 9 9 8 8 8 8 8 9
10 12 16 19 7 7 8 6 9 2 10 7 10 15 12 15 15 16 16 15 17 20 19 17 18 17 17 17 17 16 16 15 15 14 14 13 13 12 12 13 13 12 12 12 11 11 11 11 11
11 11 18 20 17 5 4 2 6 11 12 5 6 11 16 19 17 16 14 14 14 19 19 17 16 16 15 15 15 15 14 14 14 14 14 13 13 13 15 15 16 16 15 14 14 14 14 14 14
14 13 17 18 14 5 2 2 3 4 12 12 3 16 23 23 20 17 15 13 11 15 18 17 18 16 16 17 18 17 15 15 14 14 15 14 14 15 17 20 20 19 18 17 17 17 17 16 17
13 14 19 14 10 7 3 3 5 8 9 12 14 19 24 23 20 19 17 16 14 12 15 13 17 16 15 14 16 15 15 15 16 15 17 16 15 14 14 15 22 21 19 19 20 20 18 17 14
15 19 20 18 7 8 11 10 8 9 7 13 19 19 20 22 20 19 18 17 16 14 12 12 13 15 13 8 11 10 11 12 16 17 15 14 12 10 10 7 11 14 16 15 16 18 16 14 11
17 18 17 16 12 10 12 14 13 11 3 15 22 21 20 22 21 20 20 19 18 16 14 13 10 10 7 7 7 6 6 5 7 12 16 11 4 4 5 3 6 8 9 8 8 6 11 11 10
15 14 17 20 14 14 15 15 15 15 3 12 22 23 22 21 20 19 18 17 17 17 15 13 9 7 5 2 2 5 5 4 5 3 8 7 4 4 5 2 2 5 6 2 2 2 3 4 4
14 17 16 15 15 17 18 16 17 17 12 12 17 18 19 19 19 17 16 16 16 14 14 12 11 9 7 5 3 0 1 0 3 2 1 3 4 4 4 5 4 4 4 3 2 5 5 6 6
16 18 19 19 20 21 18 17 17 17 17 11 13 14 16 17 17 16 16 15 17 14 13 12 11 11 8 6 6 5 5 6 4 2 3 4 4 4 4 5 5 5 5 5 4 5 5 6 6
16 17 20 23 23 20 11 13 16 15 14 10 11 13 14 14 15 15 16 15 15 16 14 12 12 13 10 7 6 6 5 4 4 4 6 5 4 4 3 4 4 3 4 3 5 6 6 6 6
17 19 21 22 22 16 10 13 15 9 8 7 7 10 11 12 11 11 11 9 9 12 14 10 7 11 10 9 7 6 3 3 3 4 3 3 1 3 3 4 4 4 4 5 6 5 5 6 6
14 13 15 16 10 7 9 14 9 8 10 12 11 8 11 13 10 9 7 7 9 10 12 8 6 7 9 9 5 2 4 5 4 3 4 3 3 1 1 3 3 2 3 4 3 4 5 6 7
11 14 14 9 4 1 8 14 13 5 6 11 11 7 11 10 7 7 5 8 8 9 11 8 7 5 4 4 5 4 4 2 3 4 6 3 3 2 0 4 4 5 5 5 6 6 7 7 7
11 11 13 11 9 8 10 15 18 12 9 9 10 6 6 7 9 8 2 6 7 9 7 7 7 7 6 5 4 3 3 1 1 2 5 5 4 2 3 3 3 5 5 6 6 6 6 7 7
11 9 12 12 11 13 15 19 19 18 10 5 3 11 8 14 12 6 3 5 7 9 7 5 6 7 5 8 5 4 3 3 4 4 5 6 4 2 1 2 4 5 6 5 6 6 8 6 6
10 7 9 13 13 13 14 13 11 5 5 13 17 16 16 22 19 17 15 11 10 8 6 7 2 5 4 5 5 6 5 4 3 3 3 4 4 4 3 3 4 4 4 6 7 6 5 6 7
12 11 13 16 15 14 14 12 4 9 12 17 18 16 17 19 13 11 13 15 17 17 17 17 14 9 5 3 5 3 3 4 4 3 4 5 5 6 6 6 4 4 5 7 6 7 7 5 7
10 12 16 16 11 6 11 14 2 8 11 14 17 17 16 15 11 8 11 13 15 16 16 15 14 16 17 15 12 9 8 8 8 6 5 4 5 6 8 7 5 4 5 5 6 7 8 7 7
13 12 10 8 1 4 12 12 2 10 13 15 16 15 14 14 12 12 13 14 15 15 15 14 13 12 13 14 15 14 11 9 9 8 8 7 4 4 5 5 4 3 5 5 6 8 8 8 8
11 9 9 14 12 5 13 6 7 11 11 13 14 13 13 12 12 12 12 12 12 12 12 12 10 9 9 9 9 10 11 9 8 10 10 8 4 3 3 3 3 5 6 7 7 7 8 7 6
7 11 16 13 14 14 0 8 7 6 7 9 9 9 9 8 8 7 7 7 8 8 8 8 8 8 9 9 9 7 7 7 7 7 8 9 9 8 6 3 4 6 6 7 7 7 8 6 7
5 8 8 8 10 14 12 4 4 8 5 5 6 8 9 9 9 8 7 6 7 7 6 6 6 6 7 7 8 9 9 9 9 9 7 6 8 9 10 9 7 7 7 7 8 8 7 6 7
7 9 8 8 10 12 15 5 7 8 8 8 9 9 10 11 11 10 10 10 10 10 8 6 6 6 6 6 6 7 7 7 8 9 10 8 6 6 8 9 9 9 9 9 8 9 8 7 6
12 8 8 8 9 11 14 5 9 9 8 8 9 10 11 12 13 13 13 12 11 11 11 10 8 8 7 7 7 8 8 8 8 9 9 10 10 8 6 8 8 10 11 11 10 10 9 7 6
Wind_Direction
236 233 223 248 255 259 280 59 58 52 63 64 47 45 63 52 62 87 109 112 117 125 130 130 129 128 128 131 137 142 144 145 144 142 138 132 128 126 121 113 108 106 105 104 104 104 99 97 99
270 256 241 244 263 294 84 75 70 64 63 99 89 79 78 70 83 105 111 117 124 130 139 140 138 137 135 135 140 145 149 150 150 147 143 143 143 142 138 128 122 120 119 118 119 121 122 121 119
264 259 255 230 262 318 298 102 95 99 93 86 86 60 66 88 107 120 125 129 129 135 140 139 146 145 144 143 145 150 153 155 155 154 153 157 158 157 157 157 153 149 147 145 145 149 150 149 146
272 251 233 244 161 248 260 129 103 83 82 101 106 88 76 70 108 124 137 135 128 136 139 146 152 153 154 154 156 158 160 161 163 164 167 170 171 171 173 177 178 178 178 178 183 193 195 187 180
264 261 256 260 212 217 243 153 126 127 125 88 91 96 96 90 105 130 148 131 136 144 139 149 154 158 162 165 166 167 168 169 171 174 180 184 185 187 191 196 199 200 201 203 208 215 214 211 208
277 268 279 293 140 248 251 157 81 65 114 117 115 110 108 122 130 147 145 140 147 139 135 146 154 162 169 173 175 176 177 179 182 185 190 196 200 203 209 213 215 218 219 221 223 229 229 220 219
275 292 293 294 276 199 240 155 117 287 47 11 111 117 136 145 144 149 150 151 148 140 138 151 161 169 176 180 182 183 186 189 193 198 202 206 210 215 219 222 224 226 225 224 225 227 230 231 232
273 288 289 288 294 244 194 223 106 109 109 224 226 134 148 145 152 151 155 154 149 140 145 156 165 168 177 184 189 191 195 199 204 209 214 219 223 226 230 231 228 230 228 227 228 228 229 230 233
267 269 273 283 314 326 124 136 102 203 173 187 90 131 142 148 154 155 158 153 149 147 149 165 169 168 180 185 185 189 197 205 209 215 220 223 229 230 228 229 228 225 227 228 229 230 231 234 238
245 261 268 295 347 3 346 282 202 206 198 128 99 116 138 152 157 163 164 162 166 165 162 168 167 169 187 191 170 185 195 199 208 216 210 213 228 243 253 227 222 225 229 229 229 231 232 234 242
251 260 278 297 321 326 312 300 272 260 236 147 137 138 153 159 166 171 169 171 172 177 179 168 173 170 189 187 163 184 197 193 200 220 212 207 223 240 266 253 218 223 231 233 234 231 232 234 227
255 266 285 293 294 294 290 293 293 281 272 130 145 155 175 172 176 178 174 177 169 175 180 179 182 165 186 176 176 174 190 186 200 206 210 214 214 233 250 251 223 218 230 235 258 232 221 228 231
260 270 274 282 289 283 273 268 275 276 274 131 146 165 180 180 184 185 175 166 158 168 177 178 155 149 150 151 184 183 197 214 222 201 183 210 216 241 269 282 279 274 273 232 196 264 270 266 271
278 283 282 278 280 278 273 267 264 262 249 163 160 171 183 189 192 183 166 160 160 166 171 157 152 150 152 159 182 75 235 246 300 334 190 195 201 221 248 266 265 260 279 291 256 248 245 247 249
269 272 274 269 262 255 255 259 262 266 262 192 178 185 189 192 194 178 168 170 168 168 159 147 161 154 160 172 192 195 207 205 211 232 256 231 222 230 241 254 261 267 272 265 254 248 250 258 261
269 262 260 256 251 245 241 266 274 273 271 216 191 193 188 186 193 170 175 181 171 165 154 157 172 155 165 182 206 223 209 167 173 179 204 208 209 219 236 253 253 247 246 237 245 247 252 256 261
249 244 250 254 247 231 237 264 266 278 301 288 240 207 181 179 188 163 173 168 154 155 142 148 142 154 171 184 199 223 128 132 204 197 172 121 246 231 220 237 228 224 224 223 236 228 236 258 264
307 292 247 250 233 200 250 269 288 359 321 300 281 211 178 190 183 142 130 126 113 118 123 139 168 187 173 172 177 203 171 184 191 143 107 85 294 260 50 302 294 287 286 271 261 272 250 252 262
311 316 323 325 7 304 275 287 290 238 256 278 265 211 191 182 149 100 114 117 116 112 122 153 180 162 164 156 167 179 167 170 154 148 126 155 242 288 62 284 334 322 299 323 327 311 300 292 281
312 315 310 313 328 304 281 277 280 267 223 247 265 242 197 152 109 91 94 112 121 112 118 130 131 157 186 129 104 95 67 296 159 108 154 189 226 250 285 340 338 313 327 306 280 279 279 287 293
312 327 327 317 306 290 280 272 264 259 232 197 345 14 35 61 37 62 48 63 110 125 142 151 144 166 185 144 162 148 162 233 222 207 198 192 194 214 292 338 312 313 305 301 326 307 287 288 292
311 316 306 299 290 280 279 283 276 266 84 56 51 54 55 55 38 14 19 25 46 60 67 66 83 191 176 176 218 188 190 217 222 197 200 151 179 213 204 229 261 276 291 298 288 292 321 308 295
298 308 298 288 281 280 302 291 9 65 70 60 65 65 70 69 60 25 24 31 37 41 44 40 12 354 343 279 289 299 253 249 245 208 188 172 212 213 206 205 213 249 267 272 289 307 295 288 288
309 293 280 273 275 303 329 310 32 57 60 73 71 69 69 79 80 52 34 35 35 37 41 45 30 22 14 6 356 343 321 316 315 312 290 226 221 204 199 189 188 230 262 288 301 294 290 281 279
331 315 305 311 32 214 214 253 142 76 62 70 74 75 75 74 67 51 39 35 33 33 36 39 34 25 19 16 15 12 359 337 316 303 283 252 243 235 184 160 151 244 277 282 276 276 277 276 277
323 317 305 320 319 295 198 217 105 90 80 75 73 68 65 64 62 51 39 32 26 24 24 25 22 18 15 16 11 18 19 12 3 351 337 325 313 309 71 127 190 233 252 266 271 279 279 285 300
322 330 329 321 308 309 145 123 114 108 94 80 74 67 59 52 52 47 35 28 19 14 14 5 356 351 354 359 355 358 1 355 351 351 357 354 348 336 333 276 228 241 250 257 268 273 275 285 287
267 313 314 316 318 317 319 148 148 171 132 81 54 42 29 17 16 15 9 4 355 347 346 338 326 328 333 348 351 343 340 338 334 330 337 348 350 345 331 314 288 266 260 257 257 268 270 280 282
315 319 316 315 316 319 315 43 39 69 47 33 35 20 358 345 343 340 339 339 336 330 325 322 314 311 314 321 322 314 314 321 321 316 316 318 315 325 323 308 290 277 267 261 258 262 269 272 286
311 310 314 312 312 308 306 42 30 40 28 7 344 334 329 326 323 319 317 318 320 320 318 314 307 300 294 292 289 286 287 285 284 288 296 305 305 299 300 308 297 282 275 266 261 262 269 275 283
Height
1495 1494 1496 1500 1496 1491 1483 1465 1460 1461 1463 1466 1468 1467 1473 1481 1486 1499 1501 1500 1500 1503 1508 1511 1514 1516 1519 1522 1524 1526 1528 1530 1532 1534 1536 1537 1538 1540 1541 1542 1544 1545 1546 1547 1547 1548 1549 1550 1550
1494 1497 1501 1499 1495 1502 1483 1465 1465 1466 1467 1467 1469 1469 1477 1486 1492 1497 1500 1501 1502 1504 1508 1511 1514 1517 1520 1523 1525 1527 1529 1531 1533 1535 1536 1538 1539 1541 1542 1544 1545 1546 1547 1548 1548 1549 1549 1550 1551
1494 1498 1499 1490 1494 1506 1487 1464 1463 1464 1466 1466 1470 1476 1483 1490 1494 1498 1501 1503 1504 1505 1508 1512 1514 1518 1521 1524 1526 1528 1530 1532 1534 1535 1537 1538 1540 1541 1542 1544 1545 1546 1547 1548 1549 1549 1550 1550 1551
1497 1497 1494 1486 1490 1493 1479 1464 1461 1466 1468 1466 1470 1482 1490 1493 1494 1498 1502 1504 1505 1507 1509 1512 1515 1518 1521 1523 1526 1528 1530 1532 1534 1536 1538 1539 1540 1541 1542 1543 1544 1545 1546 1547 1548 1549 1549 1550 1550
1498 1494 1484 1479 1478 1477 1467 1462 1462 1465 1467 1466 1472 1485 1493 1496 1496 1499 1503 1505 1506 1509 1510 1513 1515 1518 1520 1523 1525 1528 1530 1532 1534 1536 1538 1539 1540 1541 1542 1543 1543 1544 1544 1545 1546 1547 1548 1549 1549
1498 1487 1483 1479 1474 1472 1464 1460 1461 1463 1466 1468 1475 1486 1495 1498 1499 1501 1504 1507 1509 1510 1510 1514 1516 1518 1520 1522 1525 1527 1530 1532 1534 1535 1537 1538 1539 1540 1540 1541 1542 1542 1543 1543 1544 1545 1546 1546 1547
1498 1488 1483 1474 1467 1469 1463 1459 1465 1474 1473 1473 1474 1483 1493 1497 1499 1502 1505 1508 1510 1511 1510 1513 1515 1517 1519 1521 1524 1526 1529 1531 1533 1534 1535 1536 1537 1538 1539 1539 1540 1540 1541 1541 1542 1543 1544 1544 1545
1495 1490 1483 1472 1463 1460 1459 1460 1464 1472 1478 1482 1475 1480 1489 1494 1498 1502 1505 1508 1510 1510 1510 1513 1515 1517 1519 1521 1523 1525 1527 1529 1531 1532 1533 1534 1535 1536 1537 1537 1538 1538 1539 1539 1540 1540 1541 1542 1543
1494 1493 1487 1472 1463 1459 1459 1462 1466 1469 1473 1473 1472 1474 1482 1490 1496 1500 1504 1507 1510 1511 1510 1512 1514 1515 1518 1520 1522 1524 1526 1528 1529 1531 1532 1533 1533 1534 1534 1535 1535 1536 1536 1537 1537 1538 1539 1539 1540
1488 1489 1478 1464 1462 1462 1463 1463 1463 1464 1466 1471 1477 1478 1483 1489 1493 1497 1501 1504 1507 1509 1511 1512 1514 1514 1517 1520 1520 1523 1524 1525 1527 1528 1529 1530 1530 1531 1533 1533 1532 1533 1534 1534 1534 1535 1536 1536 1536
1482 1481 1473 1466 1465 1467 1466 1462 1461 1460 1461 1465 1475 1482 1486 1488 1491 1494 1498 1501 1504 1507 1510 1511 1514 1514 1516 1519 1520 1521 1522 1524 1525 1526 1527 1527 1528 1529 1530 1530 1530 1530 1531 1531 1531 1531 1532 1532 1532
1479 1475 1473 1469 1468 1468 1468 1465 1461 1460 1460 1465 1471 1479 1483 1485 1488 1490 1494 1497 1500 1504 1507 1509 1512 1513 1516 1518 1520 1520 1521 1523 1523 1524 1524 1525 1525 1526 1527 1528 1528 1528 1529 1529 1529 1528 1528 1528 1529
1475 1474 1474 1471 1469 1468 1467 1465 1463 1461 1461 1465 1471 1476 1480 1482 1485 1487 1490 1493 1497 1500 1504 1507 1509 1511 1512 1514 1517 1518 1519 1521 1522 1523 1522 1521 1521 1522 1523 1524 1524 1525 1526 1526 1525 1525 1525 1525 1525
1476 1474 1471 1469 1469 1468 1465 1463 1462 1459 1459 1462 1468 1473 1477 1480 1482 1484 1486 1490 1493 1497 1500 1503 1505 1507 1509 1511 1513 1514 1515 1516 1518 1519 1519 1519 1519 1519 1519 1520 1520 1521 1522 1522 1521 1520 1521 1521 1520
1478 1476 1473 1470 1466 1463 1461 1462 1458 1457 1456 1458 1464 1469 1472 1476 1478 1481 1484 1487 1490 1493 1496 1499 1502 1504 1506 1508 1510 1512 1513 1513 1514 1515 1516 1516 1516 1515 1516 1516 1516 1516 1517 1517 1516 1516 1516 1515 1515
1476 1477 1477 1465 1459 1456 1462 1469 1457 1454 1453 1453 1459 1464 1468 1473 1475 1477 1480 1483 1484 1486 1490 1495 1499 1500 1503 1506 1507 1510 1511 1511 1512 1512 1512 1512 1513 1513 1513 1513 1512 1512 1512 1512 1512 1511 1511 1511 1510
1473 1477 1472 1459 1448 1448 1456 1463 1454 1453 1454 1454 1457 1460 1464 1469 1472 1473 1476 1476 1476 1475 1480 1490 1496 1497 1499 1502 1505 1507 1509 1509 1510 1511 1511 1510 1511 1511 1511 1510 1510 1510 1509 1509 1509 1508 1508 1507 1507
1473 1463 1458 1455 1444 1449 1457 1457 1452 1455 1457 1457 1457 1457 1461 1465 1469 1469 1470 1470 1469 1476 1480 1488 1493 1496 1498 1501 1503 1505 1507 1508 1509 1510 1509 1509 1509 1510 1509 1509 1509 1508 1508 1508 1507 1506 1505 1504 1503
1468 1465 1462 1453 1446 1454 1460 1458 1453 1453 1460 1460 1456 1456 1458 1461 1464 1466 1467 1465 1472 1480 1484 1488 1493 1495 1497 1500 1501 1503 1505 1507 1509 1509 1507 1507 1508 1508 1507 1506 1506 1505 1505 1504 1503 1503 1501 1500 1500
1468 1471 1467 1458 1453 1457 1461 1459 1452 1450 1453 1456 1455 1456 1457 1458 1460 1464 1464 1463 1477 1483 1486 1489 1493 1496 1496 1497 1499 1500 1503 1505 1506 1506 1505 1505 1505 1505 1505 1504 1502 1502 1501 1500 1500 1499 1497 1496 1497
1473 1475 1473 1470 1461 1458 1461 1462 1452 1446 1447 1453 1456 1461 1462 1465 1472 1470 1470 1472 1482 1485 1486 1489 1494 1496 1496 1496 1497 1498 1501 1502 1503 1503 1502 1502 1502 1502 1502 1500 1499 1498 1497 1496 1495 1494 1493 1492 1492
1478 1469 1470 1469 1472 1471 1463 1473 1454 1447 1452 1460 1467 1471 1469 1467 1480 1474 1477 1483 1486 1486 1487 1489 1492 1495 1495 1495 1496 1496 1497 1499 1500 1500 1500 1500 1499 1499 1498 1497 1495 1494 1493 1492 1491 1491 1490 1488 1487
1472 1466 1467 1467 1470 1474 1473 1477 1463 1452 1464 1475 1481 1483 1478 1478 1484 1488 1489 1488 1486 1484 1485 1485 1489 1493 1495 1495 1495 1495 1495 1496 1497 1497 1496 1496 1496 1495 1494 1493 1491 1491 1490 1489 1488 1486 1485 1484 1482
1464 1465 1464 1463 1471 1500 1505 1503 1483 1468 1473 1478 1484 1485 1484 1484 1488 1494 1494 1490 1487 1485 1484 1484 1487 1489 1490 1490 1490 1491 1491 1492 1492 1493 1493 1492 1492 1491 1490 1489 1488 1487 1486 1485 1484 1483 1482 1480 1479
1469 1475 1484 1485 1503 1512 1503 1502 1488 1479 1479 1482 1487 1489 1490 1490 1493 1494 1493 1491 1489 1488 1487 1486 1487 1488 1488 1488 1487 1486 1486 1487 1489 1489 1489 1488 1488 1488 1487 1486 1485 1484 1483 1482 1480 1479 1479 1477 1475
1472 1475 1489 1496 1491 1481 1491 1494 1489 1485 1487 1489 1491 1495 1496 1496 1497 1497 1496 1495 1494 1492 1490 1489 1489 1489 1488 1487 1486 1484 1483 1482 1482 1483 1483 1483 1484 1484 1483 1481 1481 1480 1479 1478 1477 1476 1475 1473 1471
1475 1475 1468 1477 1475 1476 1475 1486 1489 1488 1490 1492 1494 1497 1499 1499 1498 1498 1497 1496 1495 1494 1492 1490 1490 1489 1487 1485 1484 1483 1482 1481 1480 1479 1478 1477 1477 1477 1478 1477 1477 1476 1475 1474 1473 1472 1470 1468 1465
1468 1469 1473 1481 1491 1491 1476 1485 1494 1495 1492 1493 1496 1499 1501 1501 1500 1499 1497 1496 1495 1494 1492 1491 1489 1486 1485 1483 1481 1480 1479 1477 1476 1476 1475 1473 1472 1471 1470 1471 1471 1471 1471 1471 1469 1468 1466 1463 1461
1470 1470 1471 1475 1480 1493 1493 1501 1491 1495 1496 1496 1499 1502 1504 1503 1501 1500 1498 1496 1495 1493 1491 1489 1487 1484 1482 1479 1477 1476 1474 1472 1471 1470 1469 1468 1467 1466 1465 1464 1464 1465 1465 1466 1465 1464 1462 1459 1456
1470 1470 1473 1486 1488 1484 1488 1507 1503 1503 1505 1506 1505 1505 1505 1503 1501 1499 1496 1494 1491 1490 1488 1486 1484 1482 1479 1476 1473 1471 1468 1466 1465 1463 1462 1460 1459 1459 1459 1458 1457 1457 1458 1459 1460 1459 1457 1455 1452